Preview of NWS' New Version of Forecast
This preview is not operational and should not be used for support decisions.
Latest weather observations around

Jacksonville Naval Air Station (KNIP)

Using English Units (Switch to International System of Units)
Date/ Time (EDT) Wind (mph) Vis. (mi) Weather Sky Cond. Temp (°F) Rel. Humidity Wind Chill (°F) Heat Index (°F) Pressure Precip. (in)
Air Dwpt 6 hour Altimeter (inHg) Sea level (inHg) 1 hr 3 hr 6 hr
Max Min
Aug 25 22:53 ENE 9 10 Mostly Cloudy FEW017 BKN036 81 71     72%   85 30.02 30.01      
Aug 25 21:53 NE 11 10 Mostly Cloudy FEW019 BKN036 82 71     69%   86 30.01 29.99      
Aug 25 20:53 NE 11 10 Cloudy FEW019 BKN026 OVC034 82 72     72%   87 29.99 29.98      
Aug 25 19:53 NE 14 10 Cloudy SCT019 OVC027 82 72     72%   87 29.98 29.96      
Aug 25 18:53 NNE 11 10 Mostly Cloudy BKN026 BKN150 84 71     65%   89 29.97 29.96      
Aug 25 17:53 NE 13 10 Mostly Cloudy BKN026 BKN120 84 71     65%   89 29.96 29.95      
Aug 25 17:45 ENE 11 10 Mostly Cloudy BKN026 BKN250 84 71     65%   89 29.96        
Aug 25 16:53 ENE 15 10 Partly Cloudy FEW026 SCT031 SCT250 85 72     65%   91 29.97 29.95      
Aug 25 15:53 ENE 14 10 Mostly Cloudy SCT026 SCT031 BKN250 88 72     59%   95 29.97 29.96      
Aug 25 14:53 NE 16 10 Partly Cloudy SCT024 SCT250 88 72     59%   95 29.99 29.97      
Aug 25 13:53 NNE 14 10 Mostly Cloudy SCT024 BKN250 88 73     61%   96 30 29.98     0
Aug 25 12:53   10 Mostly Cloudy SCT019 BKN042 BKN250 88 73     61%   96 30.01 29.99      
Aug 25 11:53 NNE 15 10 Mostly Cloudy FEW017 SCT027 BKN042 BKN250 85 74     70%   92 30.01 30 0    
Aug 25 10:53 NNE 13 10 Light Rain FEW017 SCT025 BKN033 BKN250 84 74     72%   91 30.02 30 0 0  
Aug 25 09:53 N 11 10 Mostly Cloudy SCT014 BKN025 BKN250 84 74     72%   91 30.01 29.99      
Aug 25 08:53 N 14 10 Mostly Cloudy SCT008 BKN017 BKN250 82 75     79%   89 29.99 29.98      
Aug 25 07:53 N 11 10 Mostly Cloudy BKN006 BKN250 80 75     85%   85 29.98 29.97      
Aug 25 06:53 NNW 8 10 Partly Cloudy FEW012 SCT250 81 75     82%   87 29.96 29.94      
Aug 25 05:53 N 9 10 Mostly Cloudy FEW016 SCT022 BKN250 83 75     77%   90 29.94 29.93      
Aug 25 04:53 NE 9 10 Partly Cloudy FEW012 SCT250 82 76     82%   89 29.93 29.91      
Aug 25 03:53 NNE 8 10 Mostly Clear FEW012 FEW250 82 76     82%   89 29.93 29.91      
Aug 25 02:53 NNE 7 10 Mostly Clear FEW015 FEW250 83 76     79%   91 29.94 29.93      
Aug 25 01:53 NNE 6 10 Mostly Clear FEW017 FEW250 83 75     77%   90 29.97 29.96      
Aug 25 00:53 NE 5 10 Mostly Clear FEW020 FEW250 83 75     77%   90 30 29.98      
Aug 24 23:53 NE 5 10 Mostly Clear FEW020 FEW250 84 75     74%   92 30.01 29.99      
Aug 24 22:53 NE 7 10 Mostly Clear FEW020 FEW250 84 75     74%   92 30 29.98      
Aug 24 21:53 NE 6 10 Mostly Clear FEW022 FEW250 84 74     72%   91 29.99 29.98      
Aug 24 20:53 ENE 8 10 Partly Cloudy FEW025 SCT250 85 74     70%   92 29.97 29.95      
Aug 24 19:53 E 10 10 Partly Cloudy FEW030 SCT250 86 73     65%   93 29.94 29.92      
Aug 24 18:53 E 11 10 Mostly Cloudy FEW032 BKN250 88 73     61%   96 29.93 29.92      
Aug 24 17:53 ENE 11 10 Mostly Cloudy SCT038 BKN250 89 73     59%   97 29.95 29.93      
Aug 24 16:53 ENE 13 10 Mostly Cloudy SCT038 BKN250 92 72     52%   100 29.94 29.93      
Aug 24 15:53 NE 9 10 Mostly Cloudy SCT041 BKN250 92 71     51%   99 29.95 29.94      
Aug 24 14:53 ENE 10 10 Mostly Cloudy SCT041 BKN250 92 71     51%   99 29.96 29.95      
Aug 24 13:53 NE 10 10 Mostly Cloudy FEW038 SCT048 BKN060 BKN250 92 72     52%   100 29.98 29.96      
Aug 24 12:53 NNW 7 10 Partly Cloudy SCT045 SCT250 91 71     52%   98 29.99 29.97      
Aug 24 11:53 N 7 10 Partly Cloudy SCT040 SCT250 89 73     59%   97 30.01 30      
Aug 24 10:53 N 6 10 Partly Cloudy SCT040 SCT250 87 74     65%   95 30.03 30.01      
Aug 24 09:53 N 8 10 Mostly Cloudy SCT020 BKN250 85 75     72%   93 30.03 30.01      
Aug 24 08:53 NW 6 10 Mostly Cloudy FEW010 SCT016 BKN250 82 75     79%   89 30.03 30.01      
Aug 24 07:53 E 3 10 Mostly Cloudy FEW030 BKN250 82 75     79%   89 30.01 30      
Aug 24 06:53 Calm 10 Mostly Cloudy FEW020 BKN250 81 75     82%   87 29.98 29.97      
Aug 24 05:53 SSE 7 10 Mostly Cloudy FEW020 BKN250 82 75     79%   89 29.96 29.95      
Aug 24 04:53 SSE 5 10 Partly Cloudy FEW020 SCT250 81 75     82%   87 29.96 29.94      
Aug 24 03:53 ESE 7 10 Mostly Clear FEW020 81 75     82%   87 29.97 29.96      
Aug 24 02:53 ESE 5 10 Clear CLR 82 75     79%   89 29.98 29.97      
Aug 24 01:53 E 3 10 Mostly Clear FEW015 82 75     79%   89 30 29.98      
Aug 24 00:53 Calm 10 Mostly Clear FEW015 82 74     77%   88 30.01 29.99      
Aug 23 23:53 ESE 7 10 Clear CLR 83 75     77%   90 30.01 29.99      
Aug 23 22:53 E 6 10 Partly Cloudy FEW015 SCT250 83 74     74%   89 30.01 29.99      
Aug 23 21:53 E 7 10 Partly Cloudy FEW015 SCT250 84 75     74%   92 29.99 29.98      
Aug 23 20:53 E 7 10 Partly Cloudy FEW030 FEW060 SCT250 85 75     72%   93 29.99 29.97      
Aug 23 19:53 E 9 10 Mostly Cloudy FEW030 SCT060 BKN250 87 73     63%   95 29.99 29.97      
Aug 23 18:53 ESE 11 10 Mostly Cloudy FEW040 SCT060 BKN250 89 71     55%   95 29.98 29.97      
Aug 23 17:53 E 13 10 Mostly Cloudy SCT045 SCT060 BKN250 91 69     49%   96 29.99 29.97      
Aug 23 16:53 E 10 10 Mostly Cloudy SCT045 BKN250 92 68     46%   96 29.97 29.96      
Aug 23 15:53 E 9 10 Mostly Cloudy SCT040 BKN250 93 70     47%   99 29.98 29.97      
Aug 23 14:53 ENE 8 10 Mostly Cloudy FEW030 SCT040 BKN250 93 70     47%   99 30.01 30      
Aug 23 13:53 E 5 10 Mostly Cloudy SCT035 BKN050 BKN250 90 71     54%   96 30.02 30.01      
Aug 23 12:53 N 3 10 Mostly Cloudy FEW040 BKN250 90 70     52%   95 30.04 30.02      
Aug 23 11:53 N 5 10 Mostly Cloudy FEW040 BKN250 89 70     53%   94 30.06 30.04      
Aug 23 10:53 3 10 Mostly Cloudy FEW032 BKN250 87 72     61%   94 30.07 30.06      
Aug 23 09:53 N 6 10 Mostly Cloudy FEW020 BKN250 84 73     70%   90 30.08 30.06      
Aug 23 08:53 N 5 10 Partly Cloudy FEW016 SCT250 83 75     77%   90 30.07 30.05      
Aug 23 07:53 Calm 10 Partly Cloudy FEW012 SCT250 80 75     85%   85 30.05 30.04      
Aug 23 06:53 Calm 10 Partly Cloudy FEW010 SCT250 79 75     88%   83 30.03 30.02      
Aug 23 05:53 Calm 10 Partly Cloudy FEW010 SCT250 79 75     88%   83 30.02 30.01      
Aug 23 04:53 Calm 10 Mostly Clear FEW010 FEW250 80 75     85%   85 30.02 30      
Aug 23 03:53 Calm 10 Mostly Clear FEW015 81 75     82%   87 30.02 30.01      
Aug 23 02:53 S 6 10 Mostly Clear FEW015 82 75     79%   89 30.02 30.01      
Aug 23 01:53 SSE 6 10 Mostly Clear FEW015 82 75     79%   89 30.04 30.02      
Aug 23 00:53 SSE 7 10 Clear CLR 83 76     79%   91 30.05 30.04      
Aug 22 23:53 S 3 10 Partly Cloudy SCT250 83 76     79%   91 30.06 30.05      
May 15 04:53 SE 11 4 Heavy Rain and Fog/Mist SCT006 BKN014 OVC025 73 69     87%   74 29.94 29.92 0 0  
May 15 01:53 SE 11 7 Light Rain SCT008 BKN015 OVC025 73 69     87%   74 29.95 29.94 0   0
May 14 23:24 SE 10 10 Mostly Cloudy SCT010 BKN040 BKN055 BKN250 74 69     85%   75 29.98        
May 14 20:53 ENE 7 7 Light Rain FEW008 BKN024 OVC120 74 68     82%   75 29.97 29.96 0    
May 14 12:43 E 13 10 Light Rain FEW018 BKN060 OVC100 74 67     79%   75 30.06   0    
May 12 17:53 SE 11 10 Mostly Cloudy SCT180 BKN250 86 66     51%   88 30.07 30.06      
May 12 00:53 SSE 8 10 Mostly Cloudy BKN250 75 67     76%   76 30.12 30.11      
Jun 11 12:53 N 6 10 Mostly Cloudy SCT030 BKN065 BKN250 87 70     57%   92 30.18 30.17      
Jun 10 23:53 E 9 10 Cloudy FEW030 OVC250 79 73     82%   82 30.1 30.09      
Jun 10 00:53 E 5 10 Partly Cloudy FEW085 SCT250 75 67     76%   76 30.02 30.01      
Jun 09 11:53 ENE 10 10 Partly Cloudy FEW035 FEW090 SCT250 82 59     46%   82 30 29.99      
Jun 08 20:53 NE 8 10 Mostly Cloudy SCT030 BKN100 73 66     79%   74 29.87 29.85      
Jun 08 04:53 NW 13 6 Light Rain and Fog/Mist BKN007 OVC013 70 69     97%     29.71 29.7 0 0  
Notice The following observation data may not be complete
Jun 06 03:53   10 Mostly Cloudy BKN065 BKN250          %